Weather Roundup
Issued by NWS Chicago, IL

Home | Current Version | Previous Version | Text Only | Print | Product List | Glossary Off
Versions: 1 2 3 4 5 6 7 8 9 10 11 12 13 14 15 16 17 18 19 20 21 22 23 24 25 26 27 28 29 30 31 32 33 34 35 36 37 38 39 40 41 42 43 44 45 46 47 48 49 50

000
NZUS59 KLOT 220806
HRRLOT

CHICAGO AREA WEATHER ROUNDUP
NATIONAL WEATHER SERVICE CHICAGO/ROMEOVILLE IL
300 AM CDT WED OCT 22 2014

NOTE: "FAIR" INDICATES FEW OR NO CLOUDS BELOW 12,000 FEET WITH NO
SIGNIFICANT WEATHER AND/OR OBSTRUCTIONS TO VISIBILITY.

* THESE STATIONS ARE NOT UNDER NWS QUALITY CONTROL. THEY ALSO MAY NOT
  REPORT WEATHER SUCH AS PRECIPITATION OR FOG.

ILZ005-006-012>014-019>023-220900-
NORTHEAST ILLINOIS

CITY           SKY/WX    TMP DP  RH WIND       PRES   REMARKS
OHARE          CLOUDY    47  39  74 CALM      30.27R
MIDWAY         MOCLDY    49  39  68 SW7       30.28R
AURORA         CLEAR     33  29  85 CALM      30.29R
LANSING*       CLEAR     37  36  96 CALM      30.28R
JOLIET*        CLEAR     35  34  97 CALM      30.28S
WAUKEGAN       CLEAR     37  34  89 NW3       30.28R
DUPAGE AIRPORT MOCLDY    41  37  86 CALM      30.27S
WHEELING       CLOUDY    47  40  76 NW6       30.29R
KANKAKEE*      FOG       37  37  98 CALM      30.28S VSB 1
MORRIS*        CLEAR     37  36  97 CALM      30.27S
LEWIS AIRPORT* CLEAR     37  36  97 N3        30.28S
NORTHERLY IS     N/A     51  40  65 NE7         N/A
$$

WIZ051-052-058>065-066-070>072-220900-
SOUTHEAST WISCONSIN

CITY           SKY/WX    TMP DP  RH WIND       PRES   REMARKS
MILWAUKEE      PTCLDY    37  33  85 NW6       30.30R
KENOSHA*       CLEAR     35  33  92 NW5       30.29R WCI  31
RACINE*        PTCLDY    35  33  92 NW3       30.30R
BURLINGTON     CLEAR     28  28 100 CALM      30.30R FOG
WAUKESHA       CLEAR     32  30  93 CALM      30.31S
WEST BEND      PTCLDY    30  28  93 CALM      30.30S
$$

INZ001>003-010>013-019-020-220900-
NORTHWEST INDIANA

CITY           SKY/WX    TMP DP  RH WIND       PRES   REMARKS
GARY*          CLEAR     35  34  96 CALM      30.28R FOG
MICHIGAN CITY* NOT AVBL
RENSSELAER*    NOT AVBL
VALPARAISO     CLEAR     36  34  92 CALM      30.27R
$$

LMZ740>746-220900-
SOUTHERN LAKE MICHIGAN

STATION/POSITION TIME  SKY/WX   TEMP WIND        PRES    VSBY
                                AIR  DIR/SP/G
                 (UTC)          (F)  (DEG/KT/KT) (MB)    (MI)
HARRISON CRIB    0800            51   90/  4/  7   N/A
BURNHAM HARBOR   0800            50  170/  7/  9   N/A
CALUMET HARBOR   0800            45  220/  3/  5 1023.8R
BURNS HARBOR     NOT AVBL
MICHIGAN CITY    0700            42  110/  6/  6   N/A
$$

ABBREVIATIONS USED IN REMARKS
   TC - TEMPERATURE IN CELSIUS
  WCI - WIND CHILL INDEX
   HX - HEAT INDEX
  VSB - VISIBILITY
$$



USA.gov is the U.S. government's official web portal to all federal, state and local government web resources and services.